Location: Hopville
(44.8032°N, 123.1329°W)
Time: 16:41:37
(UTC+00:00)

Cosmos 841 Rocket - Pass Details

Date: 24 January 2021
Orbit: 746 x 773 km, 74.0° (Epoch: 28 February)

Event Time Altitude Azimuth Distance (km) Brightness Sun altitude
Exits shadow 12:50:43 36° 153° (SSE) 1,177 4.6 -29.8°
Maximum altitude 12:52:21 49° 105° (ESE) 962 4.2 -29.6°
Drops below altitude 10° 12:57:18 10° 31° (NNE) 2,278 6.3 -28.7°
Sets 12:59:44 0° 26° (NNE) 3,210 7.1 -28.2°
